• In Uzbekistan
  • List of Countries
  • For 7 days
  • Water Temperature
  • Satellite Maps
  • Weather Map
  • Weather Widgets
  • user-avatar
    Login

    Hourly Weather Karfagen

    Today, 16 October, Tuesday

    Time Temperature Precipitation Wind Pressure Humidity
    00:00 +25°C° 0.2 mm 2 mps 759 mmHg 75%
    01:00 +24°C° 0.2 mm 2 mps 759 mmHg 77%
    02:00 +24°C° 0.1 mm 2 mps 758 mmHg 79%
    03:00 +24°C° 0.1 mm 2 mps 758 mmHg 81%
    04:00 +23°C° 0.1 mm 2 mps 758 mmHg 84%
    05:00 +23°C° 0 mm 2 mps 758 mmHg 84%
    06:00 +23°C° 0 mm 1 mps 758 mmHg 85%
    07:00 +23°C° 0 mm 1 mps 758 mmHg 85%
    08:00 +24°C° 0.1 mm 1 mps 758 mmHg 77%
    09:00 +26°C° 0.1 mm 1 mps 759 mmHg 70%
    10:00 +27°C° 0.1 mm 1 mps 759 mmHg 62%
    11:00 +28°C° 0 mm 1 mps 759 mmHg 55%
    12:00 +29°C° 0 mm 2 mps 759 mmHg 49%
    13:00 +31°C° 0 mm 2 mps 759 mmHg 43%
    14:00 +30°C° 0 mm 2 mps 758 mmHg 43%
    15:00 +30°C° 0 mm 3 mps 758 mmHg 43%
    16:00 +30°C° 0 mm 4 mps 758 mmHg 44%
    17:00 +29°C° 0.2 mm 4 mps 758 mmHg 49%
    18:00 +28°C° 0.2 mm 4 mps 758 mmHg 54%
    19:00 +27°C° 0.2 mm 4 mps 759 mmHg 60%
    20:00 +27°C° 0.4 mm 4 mps 759 mmHg 61%
    21:00 +27°C° 0.4 mm 5 mps 759 mmHg 62%
    22:00 +27°C° 0.4 mm 5 mps 759 mmHg 63%
    23:00 +26°C° 0.5 mm 5 mps 759 mmHg 65%

    Tomorrow, 17 October, Wednesday

    Time Temperature Precipitation Wind Pressure Humidity
    00:00 +26°C° 0.5 mm 5 mps 759 mmHg 68%
    01:00 +25°C° 0.5 mm 5 mps 759 mmHg 70%
    02:00 +25°C° 0.4 mm 4 mps 758 mmHg 71%
    03:00 +25°C° 0.4 mm 4 mps 758 mmHg 72%
    04:00 +23°C° 0.4 mm 4 mps 758 mmHg 73%
    05:00 +23°C° 0.1 mm 5 mps 758 mmHg 74%
    06:00 +23°C° 0.1 mm 5 mps 758 mmHg 74%
    07:00 +23°C° 0.1 mm 5 mps 758 mmHg 75%
    08:00 +24°C° 0 mm 6 mps 758 mmHg 71%
    09:00 +26°C° 0 mm 6 mps 758 mmHg 67%
    10:00 +26°C° 0 mm 6 mps 758 mmHg 63%
    11:00 +27°C° 0.1 mm 6 mps 757 mmHg 62%
    12:00 +28°C° 0.1 mm 7 mps 757 mmHg 62%
    13:00 +28°C° 0.1 mm 7 mps 756 mmHg 62%
    14:00 +28°C° 0.9 mm 7 mps 756 mmHg 65%
    15:00 +27°C° 0.9 mm 7 mps 756 mmHg 67%
    16:00 +27°C° 0.9 mm 7 mps 755 mmHg 70%
    17:00 +26°C° 1.2 mm 7 mps 755 mmHg 73%
    18:00 +26°C° 1.2 mm 7 mps 755 mmHg 77%
    19:00 +24°C° 1.2 mm 7 mps 755 mmHg 80%
    20:00 +24°C° 0.8 mm 7 mps 755 mmHg 80%
    21:00 +24°C° 0.8 mm 7 mps 755 mmHg 81%
    22:00 +24°C° 0.8 mm 7 mps 755 mmHg 81%
    23:00 +24°C° 0.1 mm 8 mps 755 mmHg 81%

    Day after tomorrow, 18 October, Thursday

    Time Temperature Precipitation Wind Pressure Humidity
    00:00 +24°C° 0.1 mm 8 mps 754 mmHg 81%
    01:00 +24°C° 0.1 mm 9 mps 754 mmHg 80%
    02:00 +24°C° 0.4 mm 9 mps 753 mmHg 81%
    03:00 +24°C° 0.4 mm 10 mps 753 mmHg 81%
    04:00 +24°C° 0.4 mm 10 mps 752 mmHg 81%
    05:00 +24°C° 2.4 mm 11 mps 752 mmHg 81%
    06:00 +24°C° 2.4 mm 12 mps 752 mmHg 81%
    07:00 +24°C° 2.4 mm 12 mps 752 mmHg 80%
    08:00 +24°C° 3.8 mm 12 mps 752 mmHg 80%
    09:00 +24°C° 3.8 mm 12 mps 752 mmHg 79%
    10:00 +24°C° 3.8 mm 12 mps 752 mmHg 78%
    11:00 +26°C° 1.6 mm 12 mps 752 mmHg 75%
    12:00 +26°C° 1.6 mm 11 mps 751 mmHg 71%
    13:00 +27°C° 1.6 mm 11 mps 751 mmHg 68%
    14:00 +27°C° 0.6 mm 10 mps 751 mmHg 68%
    15:00 +27°C° 0.6 mm 9 mps 751 mmHg 68%
    16:00 +27°C° 0.6 mm 9 mps 751 mmHg 67%
    17:00 +26°C° 0 mm 8 mps 751 mmHg 72%
    18:00 +24°C° 0 mm 7 mps 751 mmHg 76%
    19:00 +23°C° 0 mm 6 mps 752 mmHg 80%
    20:00 +23°C° 0.2 mm 5 mps 752 mmHg 81%
    21:00 +23°C° 0.2 mm 5 mps 752 mmHg 81%
    22:00 +23°C° 0.2 mm 4 mps 753 mmHg 82%
    23:00 +23°C° 0.1 mm 4 mps 753 mmHg 82%

    19 October, Friday

    Time Temperature Precipitation Wind Pressure Humidity
    00:00 +22°C° 0.1 mm 3 mps 753 mmHg 81%
    01:00 +22°C° 0.1 mm 3 mps 753 mmHg 81%
    02:00 +23°C° 0 mm 2 mps 754 mmHg 81%
    03:00 +23°C° 0 mm 2 mps 754 mmHg 80%
    04:00 +23°C° 0 mm 1 mps 754 mmHg 80%
    05:00 +23°C° 0 mm 1 mps 754 mmHg 81%
    06:00 +22°C° 0 mm 1 mps 755 mmHg 82%
    07:00 +22°C° 0 mm 1 mps 755 mmHg 82%
    08:00 +24°C° 0.1 mm 2 mps 756 mmHg 77%
    09:00 +25°C° 0.1 mm 3 mps 756 mmHg 71%
    10:00 +26°C° 0.1 mm 3 mps 757 mmHg 65%
    11:00 +27°C° 0.1 mm 4 mps 757 mmHg 63%
    12:00 +27°C° 0.1 mm 4 mps 757 mmHg 61%
    13:00 +28°C° 0.1 mm 4 mps 757 mmHg 59%
    14:00 +27°C° 0.1 mm 4 mps 758 mmHg 61%
    15:00 +27°C° 0.1 mm 4 mps 758 mmHg 63%
    16:00 +27°C° 0.1 mm 4 mps 758 mmHg 65%
    17:00 +26°C° 0 mm 4 mps 758 mmHg 70%
    18:00 +25°C° 0 mm 3 mps 759 mmHg 75%
    19:00 +24°C° 0 mm 3 mps 760 mmHg 80%
    20:00 +24°C° 0 mm 2 mps 760 mmHg 81%
    21:00 +24°C° 0 mm 2 mps 760 mmHg 83%
    22:00 +23°C° 0 mm 1 mps 761 mmHg 84%
    23:00 +23°C° 0 mm 1 mps 761 mmHg 85%

    20 October, Saturday

    Time Temperature Precipitation Wind Pressure Humidity
    00:00 +23°C° 0 mm 1 mps 761 mmHg 85%
    01:00 +23°C° 0 mm 1 mps 761 mmHg 85%
    02:00 +23°C° 0 mm 1 mps 761 mmHg 86%
    03:00 +22°C° 0 mm 1 mps 761 mmHg 86%
    04:00 +22°C° 0 mm 1 mps 761 mmHg 86%
    05:00 +22°C° 0 mm 1 mps 761 mmHg 86%
    06:00 +22°C° 0 mm 1 mps 762 mmHg 86%
    07:00 +20°C° 0 mm 0 mps 762 mmHg 86%
    08:00 +23°C° 0 mm 1 mps 762 mmHg 80%
    09:00 +24°C° 0 mm 1 mps 762 mmHg 74%
    10:00 +26°C° 0 mm 1 mps 763 mmHg 67%
    11:00 +26°C° 0 mm 1 mps 763 mmHg 64%
    12:00 +27°C° 0 mm 1 mps 762 mmHg 60%
    13:00 +28°C° 0 mm 2 mps 762 mmHg 57%
    14:00 +28°C° 0 mm 2 mps 762 mmHg 57%
    15:00 +28°C° 0 mm 2 mps 762 mmHg 57%
    16:00 +28°C° 0 mm 3 mps 762 mmHg 58%
    17:00 +27°C° 0 mm 3 mps 762 mmHg 63%
    18:00 +26°C° 0 mm 3 mps 762 mmHg 69%
    19:00 +25°C° 0 mm 3 mps 762 mmHg 75%
    20:00 +25°C° 0 mm 3 mps 762 mmHg 77%
    21:00 +24°C° 0 mm 3 mps 763 mmHg 80%
    22:00 +24°C° 0 mm 3 mps 763 mmHg 82%
    23:00 +24°C° 0 mm 3 mps 763 mmHg 84%

    21 October, Sunday

    Time Temperature Precipitation Wind Pressure Humidity
    00:00 +22°C° 0 mm 3 mps 762 mmHg 85%
    01:00 +22°C° 0 mm 3 mps 762 mmHg 87%
    02:00 +23°C° 0 mm 2 mps 762 mmHg 88%
    03:00 +23°C° 0 mm 2 mps 762 mmHg 88%
    04:00 +21°C° 0 mm 2 mps 762 mmHg 89%
    05:00 +21°C° 0 mm 2 mps 762 mmHg 90%
    06:00 +21°C° 0 mm 2 mps 762 mmHg 90%
    07:00 +21°C° 0 mm 2 mps 762 mmHg 90%
    08:00 +23°C° 0 mm 2 mps 762 mmHg 83%
    09:00 +25°C° 0 mm 2 mps 762 mmHg 76%
    10:00 +26°C° 0 mm 2 mps 762 mmHg 68%
    11:00 +27°C° 0 mm 2 mps 762 mmHg 63%
    12:00 +28°C° 0 mm 2 mps 762 mmHg 58%
    13:00 +29°C° 0 mm 2 mps 762 mmHg 53%
    14:00 +29°C° 0 mm 3 mps 761 mmHg 54%
    15:00 +29°C° 0 mm 3 mps 761 mmHg 54%
    16:00 +28°C° 0 mm 3 mps 761 mmHg 55%
    17:00 +27°C° 0 mm 3 mps 761 mmHg 62%
    18:00 +26°C° 0 mm 3 mps 762 mmHg 69%
    19:00 +25°C° 0 mm 3 mps 762 mmHg 76%
    20:00 +25°C° 0 mm 3 mps 762 mmHg 79%
    21:00 +24°C° 0 mm 3 mps 762 mmHg 82%
    22:00 +24°C° 0 mm 2 mps 762 mmHg 85%
    23:00 +24°C° 0 mm 2 mps 762 mmHg 87%
    Show more